Find Starlink 32649

NORAD ID: 62305 Int'l Des: 2024-239 Owner: SPXS Country: US Constellation: starlink operational
LEOCIRCULAR

現在のビュー

3D地球を読み込み中...

About Starlink 32649

Starlink 32649 (NORAD 62305) is a starlink constellation satellite (v2 mini) launched Dec 13, 2024 by SPXS of US. It operates in LEO, CIRCULAR orbit with a mass of 730.00 kg.

次回通過

Passes for default location (London). Set your location on the main map for personalized predictions.

高度履歴

Loading altitude history...

軌道要素

1 62305U 24239E 26235.05328573 .00025454 00000-0 76176-3 0 9997
2 62305 53.1586 138.4386 0001313 74.8437 285.2711 15.34406387 94897
Epoch: Aug 23, 2026 • Age: 33 hours

現在のステータス

高度 470.1 km
遠地点 / 近地点 N/A
速度 7.63 km/s
衛星直下点 -25.23°S, 10.69°W
打ち上げ日 Dec 13, 2024
運用期間 1.6 years
タイプ internet

技術仕様

分類 Payload
質量 730.00 kg
乾燥質量 700.00 kg
総質量 730.00 kg
長さ 0.30 m
直径 4.10 m
スパン 29.00 m
形状 Box + pan
製造者 SPXS
バスタイプ Starlink V2M
フェーズステータス In Orbit
所有者/国 SPXS/US

Most Searched